FW3620 Weather Reports


time (UTC)temp
C
wind
direction
speed
KPH
gust
KPH
rain 1hr
cm
rain 24hr
cm
rain mn
cm
humidity
%
barometer
mb
20260504024321 15 221 0.0 0.0 0.00 0.00 0.00 53 1003.4
20260504023818 15 221 0.0 0.0 0.00 0.00 0.00 52 1003.8
20260504023315 15 223 0.0 0.0 0.00 0.00 0.00 52 1003.5
20260504022811 15 230 0.0 0.0 0.00 0.00 0.00 53 1003.9
20260504022308 15 229 0.0 0.0 0.00 0.00 0.00 53 1003.4
20260504021804 15 216 0.0 0.0 0.00 0.00 0.00 54 1003.5
20260504021302 14 212 0.0 0.0 0.00 0.00 0.00 55 1003.3
20260504020759 15 212 0.0 0.0 0.00 0.00 0.00 58 1003.5
20260504020255 15 212 0.0 0.0 0.00 0.00 0.00 57 1003.3
20260504015751 15 212 0.0 0.0 0.00 0.00 0.00 55 1003.1
20260504015248 15 212 0.0 0.0 0.00 0.00 0.00 55 1003.1
20260504014744 15 212 0.0 0.0 0.00 0.00 0.00 55 1003.1
20260504014240 15 212 0.0 0.0 0.00 0.00 0.00 53 1003.1
20260504013738 16 212 0.0 0.0 0.00 0.00 0.00 52 1003.1
20260504013235 16 212 0.0 0.0 0.00 0.00 0.00 50 1003.2
20260504012732 17 212 0.0 0.0 0.00 0.00 0.00 49 1003.1
20260504012230 17 212 0.0 0.0 0.00 0.00 0.00 49 1003.0
20260504011726 17 213 0.0 0.0 0.00 0.00 0.00 47 1002.9
20260504011223 17 233 0.0 0.0 0.00 0.00 0.00 47 1003.2
20260504010719 17 233 0.0 0.0 0.00 0.00 0.00 46 1003.1
20260504010215 18 233 0.0 0.0 0.00 0.00 0.00 45 1002.9
20260504005712 18 234 0.0 0.0 0.00 0.00 0.00 44 1002.9
20260504005209 18 233 0.0 0.0 0.00 0.00 0.00 43 1003.0
20260504004707 19 235 0.0 0.0 0.00 0.00 0.00 42 1002.9
20260504004203 19 240 0.0 0.0 0.00 0.00 0.00 43 1002.8
20260504003700 20 242 0.0 0.0 0.00 0.00 0.00 42 1002.8
20260504003157 20 229 0.0 0.0 0.00 0.00 0.00 40 1002.9
20260504002653 20 232 0.0 1.6 0.00 0.00 0.00 39 1002.9
20260504002151 20 239 0.0 0.0 0.00 0.00 0.00 40 1002.8
20260504001649 20 237 0.0 1.6 0.00 0.00 0.00 40 1002.6
20260504001144 20 231 4.8 4.8 0.00 0.00 0.00 41 1002.6
20260504000642 20 324 1.6 3.2 0.00 0.00 0.00 41 1002.8
20260504000139 20 242 1.6 3.2 0.00 0.00 0.00 41 1002.5
20260503235637 20 315 0.0 0.0 0.00 0.00 0.00 42 1002.6
20260503235133 20 242 1.6 1.6 0.00 0.00 0.00 40 1002.7
20260503234632 21 225 0.0 0.0 0.00 0.00 0.00 40 1002.6
20260503234130 21 206 4.8 8.0 0.00 0.00 0.00 39 1002.5
20260503233626 21 253 4.8 9.7 0.00 0.00 0.00 39 1002.6
20260503233122 21 226 0.0 1.6 0.00 0.00 0.00 40 1002.7
20260503232619 21 225 8.0 11.3 0.00 0.00 0.00 39 1002.5
20260503232116 21 267 8.0 9.7 0.00 0.00 0.00 39 1002.7
20260503231614 21 250 1.6 4.8 0.00 0.00 0.00 40 1002.6
20260503231111 21 242 4.8 8.0 0.00 0.00 0.00 39 1002.8
20260503230608 22 253 1.6 3.2 0.00 0.00 0.00 42 1002.6
20260503230105 21 252 6.4 9.7 0.00 0.00 0.00 39 1002.9
20260503225602 21 270 1.6 3.2 0.00 0.00 0.00 39 1002.8
20260503225056 21 228 8.0 11.3 0.00 0.00 0.00 40 1003.1
20260503224555 21 245 6.4 8.0 0.00 0.00 0.00 40 1002.7
20260503224052 20 221 1.6 3.2 0.00 0.00 0.00 42 1002.9
20260503223550 22 219 3.2 4.8 0.00 0.00 0.00 41 1003.1
20260503223045 21 239 0.0 1.6 0.00 0.00 0.00 41 1002.9
20260503222544 21 250 3.2 3.2 0.00 0.00 0.00 43 1003.2
20260503222041 21 217 4.8 9.7 0.00 0.00 0.00 42 1003.0
20260503221539 21 260 4.8 8.0 0.00 0.00 0.00 40 1002.9
20260503221036 21 241 8.0 11.3 0.00 0.00 0.00 40 1003.0
20260503220532 21 256 11.3 12.9 0.00 0.00 0.00 40 1002.9
20260503220029 21 297 6.4 8.0 0.00 0.00 0.00 41 1003.1
20260503215526 21 217 6.4 9.7 0.00 0.00 0.00 41 1003.1
20260503215023 21 312 11.3 17.7 0.00 0.00 0.00 44 1003.0
20260503214522 21 258 8.0 9.7 0.00 0.00 0.00 41 1003.0
20260503214018 21 224 8.0 11.3 0.00 0.00 0.00 41 1003.3
20260503213516 21 241 0.0 1.6 0.00 0.00 0.00 43 1003.3
20260503213013 21 193 11.3 14.5 0.00 0.00 0.00 42 1003.3
20260503212510 21 197 11.3 14.5 0.00 0.00 0.00 41 1003.2
20260503212008 21 198 4.8 9.7 0.00 0.00 0.00 41 1003.2
20260503211504 21 239 0.0 1.6 0.00 0.00 0.00 44 1003.1
20260503211000 21 249 0.0 1.6 0.00 0.00 0.00 44 1003.4
20260503210457 21 248 6.4 9.7 0.00 0.00 0.00 41 1003.7
20260503205952 20 192 8.0 11.3 0.00 0.00 0.00 42 1003.5
20260503205449 20 230 11.3 12.9 0.00 0.00 0.00 43 1003.4
20260503204945 20 269 11.3 17.7 0.00 0.00 0.00 43 1003.7
20260503204442 21 243 8.0 9.7 0.00 0.00 0.00 41 1003.8
20260503203939 20 226 3.2 4.8 0.00 0.00 0.00 45 1003.9
20260503203437 20 211 6.4 8.0 0.00 0.00 0.00 44 1003.8
20260503202933 20 226 8.0 11.3 0.00 0.00 0.00 43 1004.0
20260503202431 20 281 11.3 12.9 0.00 0.00 0.00 42 1004.1
20260503201924 20 215 6.4 11.3 0.00 0.00 0.00 42 1004.3
20260503201421 20 254 9.7 11.3 0.00 0.00 0.00 42 1004.1
20260503200918 20 253 11.3 16.1 0.00 0.00 0.00 43 1004.4
20260503200414 20 263 8.0 12.9 0.00 0.00 0.00 43 1004.3
20260503195911 20 263 1.6 3.2 0.00 0.00 0.00 46 1004.2
20260503195408 20 227 0.0 0.0 0.00 0.00 0.00 43 1004.4
20260503194905 19 312 8.0 11.3 0.00 0.00 0.00 45 1004.4
20260503194402 19 252 6.4 8.0 0.00 0.00 0.00 44 1004.7
20260503193857 20 247 6.4 14.5 0.00 0.00 0.00 42 1004.7
20260503193353 19 252 8.0 11.3 0.00 0.00 0.00 43 1004.6
20260503192849 18 271 9.7 14.5 0.00 0.00 0.00 43 1005.0
20260503192345 19 189 8.0 16.1 0.00 0.00 0.00 43 1004.9
20260503191841 19 274 8.0 9.7 0.00 0.00 0.00 43 1005.0
20260503191338 19 265 6.4 9.7 0.00 0.00 0.00 43 1004.9
20260503190835 20 211 4.8 12.9 0.00 0.00 0.00 43 1004.9
20260503190332 18 281 6.4 8.0 0.00 0.00 0.00 44 1005.0
20260503185829 19 261 6.4 8.0 0.00 0.00 0.00 44 1005.3
20260503185325 19 211 1.6 3.2 0.00 0.00 0.00 44 1005.0
20260503184820 19 191 9.7 14.5 0.00 0.00 0.00 43 1005.2
20260503184316 18 225 6.4 9.7 0.00 0.00 0.00 44 1005.4
20260503183812 18 250 0.0 0.0 0.00 0.00 0.00 45 1005.2
20260503183309 18 260 4.8 8.0 0.00 0.00 0.00 44 1005.1
20260503182806 18 222 8.0 12.9 0.00 0.00 0.00 45 1005.2
20260503182306 18 186 9.7 12.9 0.00 0.00 0.00 47 1005.3
20260503181756 19 151 14.5 24.1 0.00 0.00 0.00 45 1005.3
20260503181254 18 209 3.2 4.8 0.00 0.00 0.00 48 1005.4
20260503180750 18 273 11.3 17.7 0.00 0.00 0.00 48 1005.5
20260503180248 17 203 1.6 8.0 0.00 0.00 0.00 48 1005.6
20260503175744 18 274 6.4 9.7 0.00 0.00 0.00 48 1005.7
20260503175242 17 223 1.6 3.2 0.00 0.00 0.00 47 1005.7
20260503174738 17 190 3.2 4.8 0.00 0.00 0.00 49 1005.9
20260503174236 17 205 3.2 8.0 0.00 0.00 0.00 49 1006.1
20260503173730 16 204 1.6 3.2 0.00 0.00 0.00 51 1005.9
20260503173227 16 260 8.0 14.5 0.00 0.00 0.00 49 1006.1
20260503172724 16 280 6.4 11.3 0.00 0.00 0.00 48 1006.0
20260503172221 16 229 11.3 20.9 0.00 0.00 0.00 48 1006.3
20260503171717 17 217 12.9 16.1 0.00 0.00 0.00 47 1006.5
20260503171214 16 266 11.3 14.5 0.00 0.00 0.00 48 1006.3
20260503170712 16 184 4.8 8.0 0.00 0.00 0.00 47 1006.1
20260503170208 16 181 8.0 9.7 0.00 0.00 0.00 46 1006.4
20260503160130 16 277 4.8 8.0 0.00 0.00 0.00 58 1007.4
20260503150600 14 221 3.2 4.8 0.00 0.00 0.00 62 1007.8
20260503130943 11 236 4.8 8.0 0.00 0.00 0.00 65 1009.4
20260503130441 11 196 1.6 4.8 0.00 0.00 0.00 66 1009.5
20260503110326 10 202 4.8 8.0 0.00 0.00 0.00 55 1009.3
20260503100246 10 171 3.2 8.0 0.00 0.00 0.00 54 1010.0
20260503090206 8 244 3.2 4.8 0.00 0.00 0.00 56 1010.4
20260503081636 8 188 1.6 1.6 0.00 0.00 0.00 56 1010.6
20260503081133 8 211 0.0 1.6 0.00 0.00 0.00 56 1010.9
20260503080628 8 203 0.0 1.6 0.00 0.00 0.00 56 1010.9
20260503080126 8 244 0.0 0.0 0.00 0.00 0.00 57 1010.8
20260503072602 7 223 0.0 0.0 0.00 0.00 0.00 57 1011.2
20260503072100 7 215 0.0 0.0 0.00 0.00 0.00 57 1011.1
20260503071556 8 204 1.6 1.6 0.00 0.00 0.00 56 1010.9
20260503071053 8 208 6.4 9.7 0.00 0.00 0.00 55 1010.9
20260503070549 7 258 0.0 0.0 0.00 0.00 0.00 56 1011.4
20260503055003 8 229 0.0 1.6 0.00 0.00 0.00 51 1011.7
20260503054459 8 243 0.0 1.6 0.00 0.00 0.00 52 1011.9
20260503053956 8 222 0.0 0.0 0.00 0.00 0.00 52 1011.9
20260503053454 8 187 0.0 0.0 0.00 0.00 0.00 52 1011.9
20260503052951 8 214 0.0 1.6 0.00 0.00 0.00 51 1012.0
20260503052448 8 210 0.0 0.0 0.00 0.00 0.00 51 1012.1
20260503051944 8 212 0.0 0.0 0.00 0.00 0.00 51 1012.0
20260503051440 8 204 0.0 0.0 0.00 0.00 0.00 52 1012.0
20260503050938 8 231 0.0 1.6 0.00 0.00 0.00 50 1012.1
20260503050433 9 235 0.0 0.0 0.00 0.00 0.00 50 1012.2
20260503045931 8 222 0.0 0.0 0.00 0.00 0.00 50 1012.3
20260503045429 8 225 0.0 0.0 0.00 0.00 0.00 50 1012.2
20260503044925 9 221 0.0 0.0 0.00 0.00 0.00 50 1011.9
20260503044422 9 183 0.0 0.0 0.00 0.00 0.00 49 1012.1
20260503043920 9 280 0.0 0.0 0.00 0.00 0.00 49 1012.3
20260503043416 10 195 3.2 4.8 0.00 0.00 0.00 48 1012.1
20260503042913 9 213 0.0 0.0 0.00 0.00 0.00 48 1012.1
20260503042410 9 224 0.0 1.6 0.00 0.00 0.00 48 1012.2
20260503041906 9 232 0.0 0.0 0.00 0.00 0.00 49 1012.4
20260503041403 9 249 0.0 1.6 0.00 0.00 0.00 50 1012.5
20260503040900 9 221 0.0 0.0 0.00 0.00 0.00 49 1012.6
20260503040358 9 220 0.0 0.0 0.00 0.00 0.00 49 1012.5
20260503035854 9 216 0.0 0.0 0.00 0.00 0.00 50 1012.7
20260503035351 9 272 0.0 0.0 0.00 0.00 0.00 49 1012.5
20260503034848 8 226 0.0 1.6 0.00 0.00 0.00 49 1012.5
20260503034346 9 255 0.0 0.0 0.00 0.00 0.00 49 1012.5
20260503033843 9 271 0.0 1.6 0.00 0.00 0.00 48 1012.7
20260503033341 9 232 0.0 0.0 0.00 0.00 0.00 48 1012.6
20260503032838 9 221 0.0 0.0 0.00 0.00 0.00 48 1012.7
20260503032337 9 227 0.0 0.0 0.00 0.00 0.00 48 1012.8
20260503031834 9 259 0.0 0.0 0.00 0.00 0.00 48 1012.8
20260503031332 9 226 0.0 0.0 0.00 0.00 0.00 47 1013.0
20260503030828 9 237 0.0 0.0 0.00 0.00 0.00 48 1013.0
20260503030325 9 221 0.0 0.0 0.00 0.00 0.00 48 1013.0
20260503025821 9 220 0.0 0.0 0.00 0.00 0.00 48 1013.0
20260503025319 10 217 0.0 0.0 0.00 0.00 0.00 48 1012.9
20260503024816 10 218 0.0 0.0 0.00 0.00 0.00 48 1013.0